K4DNM Weather Reports


Display with metric or nautical units.
time (UTC)temp
F
wind
direction
speed
MPH
gust
MPH
rain 1hr
in
rain 24hr
in
rain mn
in
humidity
%
barometer
mb
20260503192423 67 309 1.0 3.0 0.00 0.02 0.00 32 1015.9
20260503192255 67 0 1.0 3.0 0.00 0.02 0.00 32 1015.9
20260503191657 66 255 2.0 9.0 0.00 0.02 0.00 32 1015.9
20260503191651 66 272 2.0 9.0 0.00 0.02 0.00 32 1015.9
20260503191631 66 50 2.0 9.0 0.00 0.03 0.00 29 1016.0
20260503191256 66 80 2.0 9.0 0.00 0.03 0.00 29 1016.0
20260503190657 66 294 2.0 8.0 0.00 0.03 0.00 34 1016.1
20260503190650 66 13 2.0 8.0 0.00 0.03 0.00 34 1016.1
20260503190157 66 2 2.0 8.0 0.00 0.03 0.00 32 1016.0
20260503190148 66 112 2.0 8.0 0.00 0.03 0.00 32 1016.0
20260503185653 66 195 2.0 8.0 0.00 0.03 0.00 31 1016.1
20260503185643 66 225 2.0 8.0 0.00 0.03 0.00 33 1016.2
20260503185155 66 316 2.0 7.0 0.00 0.03 0.00 32 1016.2
20260503185145 66 284 2.0 7.0 0.00 0.03 0.00 31 1016.2
20260503184653 66 130 2.0 6.0 0.00 0.03 0.00 33 1016.2
20260503184643 66 170 2.0 6.0 0.00 0.03 0.00 33 1016.2
20260503184153 66 184 2.0 6.0 0.00 0.04 0.00 32 1016.2
20260503184144 66 226 2.0 6.0 0.00 0.04 0.00 30 1016.3
20260503183654 66 257 2.0 7.0 0.00 0.04 0.00 34 1016.2
20260503183645 65 198 2.0 7.0 0.00 0.04 0.00 32 1016.2
20260503183154 65 107 2.0 7.0 0.00 0.04 0.00 34 1016.2
20260503183144 65 0 2.0 7.0 0.00 0.04 0.00 34 1016.1
20260503182911 65 181 3.0 8.0 0.00 0.04 0.00 33 1016.3
20260503182751 65 210 3.0 8.0 0.00 0.04 0.00 34 1016.3
20260503182153 65 111 3.0 8.0 0.00 0.04 0.00 33 1016.4
20260503182145 65 245 3.0 8.0 0.00 0.04 0.00 34 1016.4
20260503181654 66 28 2.0 6.0 0.00 0.04 0.00 34 1016.4
20260503181644 65 186 2.0 6.0 0.00 0.04 0.00 35 1016.4
20260503181153 65 230 2.0 9.0 0.00 0.05 0.00 35 1016.5
20260503181144 65 253 2.0 9.0 0.00 0.05 0.00 34 1016.5
20260503180652 65 130 2.0 10.0 0.00 0.05 0.00 38 1016.5
20260503180645 65 53 2.0 10.0 0.00 0.05 0.00 36 1016.6
20260503180152 64 55 2.0 10.0 0.00 0.05 0.00 34 1016.6
20260503180143 64 62 2.0 10.0 0.00 0.05 0.00 36 1016.6
20260503175651 65 345 2.0 7.0 0.00 0.05 0.00 35 1016.7
20260503175641 65 315 2.0 7.0 0.00 0.05 0.00 35 1016.6
20260503175149 65 190 2.0 7.0 0.00 0.06 0.00 35 1016.7
20260503175141 65 154 2.0 7.0 0.00 0.06 0.00 36 1016.8
20260503174648 65 282 2.0 6.0 0.00 0.06 0.00 32 1016.8
20260503174642 65 263 2.0 6.0 0.00 0.06 0.00 34 1016.8
20260503174146 64 346 3.0 6.0 0.00 0.06 0.00 34 1016.8
20260503174141 64 331 2.0 6.0 0.00 0.06 0.00 36 1016.7
20260503173647 64 126 2.0 8.0 0.00 0.06 0.00 34 1016.8
20260503173641 64 159 2.0 8.0 0.00 0.06 0.00 37 1016.8
20260503173145 65 23 2.0 8.0 0.00 0.06 0.00 36 1016.9
20260503173141 65 338 2.0 8.0 0.00 0.06 0.00 34 1016.8
20260503172648 64 353 2.0 6.0 0.00 0.07 0.00 40 1016.8
20260503172641 64 62 2.0 6.0 0.00 0.07 0.00 40 1016.8
20260503172142 64 222 2.0 6.0 0.00 0.07 0.00 37 1016.9
20260503171649 64 55 2.0 6.0 0.00 0.07 0.00 35 1016.9
20260503171643 64 102 2.0 6.0 0.00 0.07 0.00 35 1016.9
20260503171409 64 238 2.0 6.0 0.00 0.07 0.00 36 1017.0
20260503171248 64 262 2.0 6.0 0.00 0.07 0.00 36 1017.0
20260503170647 63 351 2.0 6.0 0.00 0.07 0.00 40 1016.9
20260503170640 63 282 2.0 6.0 0.00 0.07 0.00 40 1016.9
20260503170145 63 45 2.0 6.0 0.00 0.07 0.00 37 1017.0
20260503170140 63 32 2.0 6.0 0.00 0.07 0.00 37 1017.0
20260503150640 60 16 3.0 5.0 0.00 0.18 0.00 49 1018.0
20260503150636 60 319 3.0 5.0 0.00 0.18 0.00 49 1018.0
20260503150138 60 258 3.0 6.0 0.00 0.19 0.00 47 1018.0
20260503150134 60 352 3.0 6.0 0.00 0.19 0.00 47 1018.0
20260503140236 58 41 2.0 6.0 0.00 0.28 0.00 59 1018.1
20260503131355 54 235 4.0 6.0 0.00 0.30 0.00 76 1018.0
20260503131233 54 235 4.0 6.0 0.00 0.30 0.00 76 1018.0
20260503130629 53 337 4.0 6.0 0.00 0.31 0.00 72 1018.1
20260503130129 53 212 3.0 6.0 0.00 0.31 0.00 74 1018.1
20260503120126 47 359 1.0 2.0 0.00 0.37 0.00 99 1017.7
20260503110605 40 219 1.0 2.0 0.00 0.47 0.00 99 1016.5
20260503110555 40 337 1.0 2.0 0.00 0.46 0.00 99 1016.6
20260503110241 39 353 1.0 2.0 0.00 0.50 0.00 99 1016.2
20260503110223 40 219 1.0 2.0 0.00 0.47 0.00 99 1016.5
20260503090443 40 270 0.0 1.0 0.00 0.53 0.00 99 1014.9
20260503081636 42 3 1.0 2.0 0.00 0.53 0.00 99 1014.3
20260503081518 42 3 1.0 2.0 0.00 0.53 0.00 99 1014.3
20260503081143 42 338 1.0 2.0 0.00 0.53 0.00 99 1014.3
20260503081018 42 338 1.0 2.0 0.00 0.53 0.00 99 1014.3
20260503080413 42 355 1.0 2.0 0.00 0.53 0.00 99 1014.3
20260503072844 43 310 1.0 2.0 0.00 0.53 0.00 99 1013.9
20260503072606 43 331 1.0 2.0 0.00 0.53 0.00 99 1013.8
20260503072448 43 331 1.0 2.0 0.00 0.53 0.00 99 1013.8
20260503071829 43 323 1.0 2.0 0.00 0.53 0.00 99 1013.6
20260503071315 43 322 0.0 1.0 0.00 0.53 0.00 99 1013.5
20260503070814 43 0 0.0 1.0 0.00 0.53 0.00 99 1013.5
20260503070330 44 333 1.0 2.0 0.00 0.53 0.00 99 1013.5
20260503060254 45 286 1.0 1.0 0.00 0.53 0.00 99 1013.3
20260503060150 45 0 1.0 2.0 0.00 0.53 0.00 99 1013.2
20260503060109 45 312 1.0 1.0 0.00 0.53 0.00 99 1013.3
20260503054230 45 0 1.0 2.0 0.00 0.53 0.00 99 1013.2
20260503053732 45 329 1.0 2.0 0.00 0.53 0.00 99 1013.1
20260503053724 45 320 1.0 2.0 0.00 0.53 0.00 99 1013.1
20260503053335 45 320 1.0 2.0 0.00 0.53 0.00 99 1013.1
20260503052731 45 329 1.0 2.0 0.00 0.53 0.00 99 1013.2
20260503052231 46 281 1.0 2.0 0.00 0.53 0.00 99 1013.1
20260503051939 46 327 1.0 2.0 0.00 0.53 0.00 99 1013.1
20260503051825 46 327 1.0 2.0 0.00 0.53 0.00 99 1013.1
20260503051219 46 328 1.0 2.0 0.00 0.53 0.00 99 1013.1
20260503050722 46 332 1.0 2.0 0.00 0.53 0.00 99 1013.2
20260503050204 46 346 1.0 2.0 0.00 0.53 0.00 99 1013.2
20260503045705 46 332 1.0 2.0 0.00 0.53 0.00 99 1013.3
20260503045205 46 331 0.0 1.0 0.00 0.53 0.00 99 1013.2
20260503044923 47 266 1.0 1.0 0.00 0.53 0.00 99 1013.3
20260503044809 47 266 1.0 1.0 0.00 0.53 0.00 99 1013.3
20260503044427 47 325 1.0 2.0 0.00 0.53 0.00 99 1013.3
20260503044309 47 325 1.0 2.0 0.00 0.53 0.00 99 1013.3
20260503043705 47 350 1.0 2.0 0.00 0.53 0.00 99 1013.3
20260503043205 47 330 1.0 2.0 0.00 0.53 0.00 99 1013.2
20260503042719 47 324 1.0 1.0 0.00 0.53 0.00 99 1013.2
20260503042204 47 292 0.0 1.0 0.00 0.53 0.00 99 1013.2
20260503041704 47 323 0.0 1.0 0.00 0.53 0.00 99 1013.2
20260503041201 47 0 1.0 2.0 0.00 0.53 0.00 99 1013.2
20260503040648 47 0 1.0 2.0 0.00 0.53 0.00 99 1013.1
20260503040135 47 336 1.0 2.0 0.00 0.53 0.00 99 1013.1
20260503035633 47 348 1.0 2.0 0.00 0.53 0.53 99 1013.0
20260503035134 47 341 0.0 1.0 0.00 0.53 0.53 99 1012.9
20260503034633 47 343 1.0 2.0 0.00 0.53 0.53 99 1012.9
20260503034135 47 316 1.0 2.0 0.00 0.53 0.53 99 1012.9
20260503033633 47 316 1.0 2.0 0.00 0.53 0.53 99 1012.9
20260503033122 48 318 1.0 1.0 0.00 0.53 0.53 99 1012.9
20260503032619 48 334 1.0 1.0 0.00 0.53 0.53 99 1012.8
20260503032105 48 344 1.0 1.0 0.00 0.53 0.53 100 1012.7
20260503031606 48 330 0.0 1.0 0.00 0.53 0.53 100 1012.7
20260503031102 49 317 1.0 2.0 0.00 0.53 0.53 100 1012.7
20260503030604 49 341 1.0 2.0 0.00 0.53 0.53 99 1012.7
20260503030107 49 0 1.0 2.0 0.00 0.53 0.53 100 1012.7
20260503025828 49 329 1.0 2.0 0.00 0.53 0.53 100 1012.6
20260503025708 49 329 1.0 2.0 0.00 0.53 0.53 100 1012.6
20260503025103 49 350 1.0 2.0 0.00 0.53 0.53 100 1012.7
20260503024604 49 29 1.0 2.0 0.00 0.53 0.53 99 1012.7
20260503024102 49 0 1.0 1.0 0.00 0.53 0.53 99 1012.7
20260503023605 49 296 0.0 1.0 0.00 0.53 0.53 99 1012.7
20260503023103 49 0 0.0 1.0 0.00 0.53 0.53 100 1012.6
20260503022606 49 0 0.0 1.0 0.00 0.53 0.53 100 1012.8
20260503022049 49 173 1.0 1.0 0.00 0.53 0.53 99 1012.8
20260503021550 49 324 1.0 2.0 0.00 0.53 0.53 99 1012.8
20260503021314 49 315 1.0 2.0 0.00 0.53 0.53 99 1012.8
20260503021154 49 315 1.0 2.0 0.00 0.53 0.53 99 1012.8
20260503020811 49 344 1.0 2.0 0.00 0.53 0.53 99 1012.7
20260503020655 49 344 1.0 2.0 0.00 0.53 0.53 99 1012.7
20260503015550 49 354 1.0 1.0 0.00 0.53 0.53 99 1012.6
20260503015050 49 354 1.0 1.0 0.00 0.53 0.53 99 1012.5
20260503014822 49 261 1.0 2.0 0.00 0.53 0.53 99 1012.6
20260503014655 49 261 1.0 2.0 0.00 0.53 0.53 99 1012.6
20260503014049 49 339 1.0 2.0 0.00 0.53 0.53 99 1012.5
20260503013547 50 336 1.0 2.0 0.00 0.53 0.53 99 1012.4
20260503013242 50 337 1.0 2.0 0.00 0.53 0.53 98 1012.2
20260503013126 50 330 1.0 2.0 0.00 0.53 0.53 99 1012.4
20260503012905 50 279 0.0 2.0 0.00 0.53 0.53 99 1012.3
20260503012725 50 279 0.0 2.0 0.00 0.53 0.53 99 1012.3
20260503012130 50 337 1.0 2.0 0.00 0.53 0.53 98 1012.2
20260503011507 50 340 1.0 2.0 0.00 0.53 0.53 98 1012.0
20260503011010 51 334 1.0 2.0 0.00 0.53 0.53 98 1011.8
20260503010507 51 314 1.0 2.0 0.00 0.53 0.53 98 1011.8
20260503010227 51 332 1.0 2.0 0.00 0.53 0.53 98 1011.7
20260503010114 51 332 1.0 2.0 0.00 0.53 0.53 98 1011.7
20260503005507 51 328 1.0 2.0 0.00 0.53 0.53 98 1011.7
20260503005010 51 349 1.0 2.0 0.00 0.53 0.53 98 1011.7
20260503004508 51 348 1.0 2.0 0.00 0.53 0.53 98 1011.6
20260503004009 51 345 1.0 2.0 0.00 0.53 0.53 98 1011.6
20260503003508 51 335 1.0 2.0 0.00 0.53 0.53 98 1011.6
20260503003229 51 346 1.0 2.0 0.00 0.53 0.53 97 1011.4
20260503003111 51 346 1.0 2.0 0.00 0.53 0.53 97 1011.4
20260503002712 51 351 1.0 2.0 0.00 0.53 0.53 97 1011.4
20260503002556 51 351 1.0 2.0 0.00 0.53 0.53 97 1011.4
20260503001953 51 342 1.0 2.0 0.00 0.53 0.53 97 1011.4
20260503001451 51 342 1.0 2.0 0.00 0.53 0.53 97 1011.3
20260503001217 52 0 1.0 2.0 0.00 0.53 0.53 97 1011.2
20260503001058 52 0 1.0 2.0 0.00 0.53 0.53 97 1011.2
20260503000451 52 331 1.0 2.0 0.00 0.53 0.53 96 1011.2
20260502235955 52 279 1.0 2.0 0.00 0.53 0.53 96 1011.1
20260502235452 52 315 1.0 2.0 0.00 0.53 0.53 96 1011.1
20260502234953 52 355 1.0 2.0 0.00 0.53 0.53 96 1011.0
20260502234437 52 328 1.0 2.0 0.00 0.53 0.53 96 1011.1
20260502233939 53 355 1.0 2.0 0.00 0.53 0.53 95 1011.1
20260502233438 53 353 1.0 2.0 0.00 0.53 0.53 95 1011.0
20260502232937 53 17 1.0 2.0 0.00 0.53 0.53 95 1010.9
20260502232439 53 25 1.0 2.0 0.00 0.53 0.53 95 1010.9
20260502231941 53 0 1.0 2.0 0.00 0.53 0.53 95 1010.9
20260502231423 53 24 1.0 2.0 0.00 0.53 0.53 95 1010.9
20260502230924 53 348 1.0 2.0 0.00 0.53 0.53 95 1010.9
20260502230423 53 284 1.0 2.0 0.00 0.53 0.53 95 1010.9
20260502225923 53 25 1.0 2.0 0.00 0.53 0.53 95 1010.9
20260502225423 53 355 1.0 1.0 0.00 0.53 0.53 95 1010.9
20260502224924 53 343 0.0 1.0 0.00 0.53 0.53 95 1010.9
20260502224423 53 0 0.0 1.0 0.00 0.53 0.53 94 1010.8
20260502223923 53 346 0.0 1.0 0.00 0.53 0.53 94 1010.8
20260502223423 53 0 1.0 1.0 0.00 0.53 0.53 94 1010.8
20260502222907 53 323 1.0 2.0 0.00 0.53 0.53 93 1010.8
20260502222850 53 344 1.0 2.0 0.00 0.53 0.53 93 1010.7
20260502222513 53 344 1.0 2.0 0.00 0.53 0.53 93 1010.7
20260502221907 53 21 1.0 3.0 0.00 0.53 0.53 92 1010.7
20260502221411 53 106 2.0 3.0 0.00 0.53 0.53 92 1010.7
20260502220910 53 64 1.0 3.0 0.00 0.53 0.53 93 1010.6
20260502220640 53 347 1.0 2.0 0.00 0.53 0.53 93 1010.6
20260502220515 53 347 1.0 2.0 0.00 0.53 0.53 93 1010.6
20260502215911 53 353 1.0 2.0 0.00 0.53 0.53 95 1010.7
20260502215412 53 16 1.0 4.0 0.01 0.53 0.53 94 1010.5
20260502214910 53 79 2.0 4.0 0.01 0.53 0.53 94 1010.5
20260502214408 53 4 2.0 3.0 0.01 0.53 0.53 94 1010.6
20260502213908 53 8 2.0 3.0 0.01 0.53 0.53 93 1010.6
20260502213408 53 83 2.0 3.0 0.01 0.53 0.53 93 1010.6
20260502212908 53 145 2.0 3.0 0.02 0.53 0.53 94 1010.7
20260502212408 53 70 2.0 6.0 0.02 0.53 0.53 93 1010.7
20260502211902 53 50 2.0 6.0 0.02 0.53 0.53 93 1010.6
20260502211358 53 122 2.0 5.0 0.02 0.53 0.53 93 1010.7
20260502211119 53 81 1.0 3.0 0.02 0.53 0.53 94 1010.6
20260502211003 53 81 1.0 3.0 0.02 0.53 0.53 94 1010.6
20260502210358 53 53 2.0 3.0 0.02 0.53 0.53 94 1010.6
20260502205859 53 36 1.0 2.0 0.01 0.53 0.53 94 1010.7
20260502205358 53 42 1.0 3.0 0.01 0.52 0.52 94 1010.6
20260502204859 53 21 2.0 5.0 0.01 0.52 0.52 94 1010.7
20260502204604 53 32 2.0 5.0 0.01 0.52 0.52 94 1010.6
20260502204448 53 32 2.0 5.0 0.01 0.52 0.52 94 1010.6
20260502203840 53 6 2.0 4.0 0.01 0.52 0.52 94 1010.7
20260502203341 53 80 2.0 3.0 0.01 0.52 0.52 93 1010.7
20260502203333 53 119 2.0 3.0 0.01 0.52 0.52 93 1010.7
20260502202945 53 119 2.0 3.0 0.01 0.52 0.52 93 1010.7
20260502202603 53 141 2.0 3.0 0.01 0.52 0.52 93 1010.6
20260502202446 53 141 2.0 3.0 0.01 0.52 0.52 93 1010.6
20260502201841 53 53 2.0 3.0 0.01 0.52 0.52 93 1010.6
20260502201610 53 248 1.0 3.0 0.01 0.52 0.52 94 1010.7
20260502201341 53 248 1.0 3.0 0.01 0.52 0.52 94 1010.7
20260502201104 53 37 2.0 3.0 0.01 0.52 0.52 94 1010.7
20260502200946 53 37 2.0 3.0 0.01 0.52 0.52 94 1010.7
20260502200341 53 52 2.0 3.0 0.01 0.52 0.52 95 1010.8
20260502200110 53 34 2.0 3.0 0.02 0.52 0.52 95 1010.9
20260502195842 53 63 2.0 3.0 0.01 0.52 0.52 95 1010.8
20260502195445 53 34 2.0 3.0 0.02 0.52 0.52 95 1010.9
20260502194841 53 52 2.0 4.0 0.02 0.52 0.52 95 1010.9
20260502194342 53 54 2.0 4.0 0.02 0.52 0.52 95 1010.9
20260502193829 53 3 2.0 4.0 0.02 0.51 0.51 95 1010.9
20260502193330 53 340 2.0 4.0 0.02 0.51 0.51 96 1011.0
20260502192829 53 269 2.0 4.0 0.02 0.51 0.51 96 1011.1